Location: Recife
(8.0585°S, 34.8848°W)
Time: 11:53:55
(UTC-03:00)

Vanguard 1 Rocket - Visible Passes

Search period start: 14 April 2026 00:00
Search period end: 24 April 2026 00:00
Orbit: 654 x 4213 km, 34.3° (Epoch: 13 April)

Date Brightness Start Highest point End Pass type
(mag) Time Alt. Az. Time Alt. Az. Time Alt. Az.
14 Apr 10.4 17:42:19 10° WSW 17:58:47 80° NW 18:25:07 10° NE visible
14 Apr 11.3 20:13:21 10° W 20:32:48 35° NW 20:54:46 10° NNE visible
14 Apr 11.7 23:04:07 10° NW 23:11:07 12° NNW 23:17:36 10° N visible
15 Apr 10.4 04:19:37 10° N 04:23:39 13° NNE 04:26:51 10° NE visible
15 Apr 11.0 18:57:10 10° WSW 19:15:28 50° NW 19:40:17 10° NE visible
15 Apr 11.7 21:36:17 10° WNW 21:51:59 19° NNW 22:07:11 10° NNE visible
16 Apr 10.6 17:42:58 10° WSW 17:58:54 68° NW 18:24:38 10° NE visible
16 Apr 11.5 20:15:26 10° W 20:33:32 29° NNW 20:53:57 10° NNE visible
17 Apr 10.0 04:17:48 10° NNW 04:24:48 21° NNE 04:29:33 10° ENE visible
17 Apr 11.2 18:58:28 10° W 19:15:54 41° NNW 19:39:30 10° NNE visible
17 Apr 11.8 21:40:39 10° NW 21:53:44 16° NNW 22:06:22 10° N visible
18 Apr 10.7 03:04:44 10° N 03:10:38 14° NNE 03:15:06 10° NE visible
18 Apr 10.8 17:43:49 10° WSW 17:59:10 57° NW 18:23:58 10° NE visible
18 Apr 11.7 20:18:07 10° WNW 20:34:39 24° NNW 20:53:06 10° NNE visible
19 Apr 11.2 01:52:12 10° N 01:55:13 11° NNE 01:57:55 10° NNE visible
19 Apr 9.5 04:16:48 10° NNW 04:25:51 32° NNE 04:31:18 10° E visible
19 Apr 11.4 19:00:09 10° W 19:16:37 34° NNW 19:38:34 10° NNE visible
19 Apr 11.8 21:45:51 10° NW 21:55:57 13° NNW 22:05:41 10° N visible
20 Apr 10.4 03:02:48 10° NNW 03:11:56 21° NNE 03:17:57 10° ENE visible
20 Apr 11.0 17:44:56 10° W 17:59:39 46° NNW 18:23:08 10° NE visible
20 Apr 11.8 20:21:32 10° WNW 20:36:10 19° NNW 20:52:14 10° NNE visible
21 Apr 11.0 01:48:34 10° NNW 01:56:52 16° NNE 02:03:00 10° NE visible
21 Apr 9.0 04:16:11 10° NW 04:26:44 47° NNE 04:32:37 10° ESE visible
21 Apr 11.6 19:02:19 10° WNW 19:17:38 27° NNW 19:37:35 10° NNE visible
21 Apr 11.9 21:51:24 10° NNW 21:58:35 11° N 22:05:29 10° N visible
22 Apr 11.4 00:33:56 10° N 00:40:18 12° NNE 00:45:38 10° NNE visible
22 Apr 10.0 03:01:30 10° NNW 03:13:05 30° NNE 03:19:54 10° E visible
22 Apr 11.3 17:46:22 10° W 18:00:23 38° NNW 18:22:08 10° NNE visible
22 Apr 11.9 20:25:42 10° NW 20:38:10 16° NNW 20:51:28 10° NNE visible
22 Apr 11.7 23:17:56 10° N 23:21:48 11° N 23:25:23 10° NNE visible
23 Apr 10.7 01:46:37 10° NNW 01:58:19 22° NNE 02:05:58 10° ENE visible
23 Apr 8.5 04:15:50 10° NW 04:27:29 67° NNE 04:33:36 10° ESE visible
23 Apr 11.8 19:05:05 10° WNW 19:19:00 22° NNW 19:36:31 10° NNE visible
23 Apr 11.9 21:55:51 10° NNW 22:01:28 11° N 22:06:52 10° N visible
